This demonstration page uses our WeatherBlox Daily Observations layout. Learn more.

Left ArrowRight Arrow

Hourly Observations for October 3, 2022

Temp ( °F °C ) Dew Point ( °F °C ) Humidity (%) Winds ( mph kmh ) Pressure ( in mb ) Visibility ( mi km ) Precip ( " mm )
12:53 am 00:53 Clear 52 11.1 42 5.6 69 69 VRB 5 7 30.28 1026 10 16 0.00 0.00
1:53 am 01:53 Clear 50 10 42 5.6 74 74 NE 5 7 30.28 1025 10 16 0.00 0.00
2:53 am 02:53 Clear 46 7.8 42 5.6 86 86 WNW 3 6 30.28 1025 10 16 0.00 0.00
3:53 am 03:53 Clear 45 7.2 42 5.6 90 90 NNW 3 6 30.28 1025 10 16 0.00 0.00
4:53 am 04:53 Clear 43 6.1 40 4.4 89 89 Calm 30.28 1026 10 16 0.00 0.00
5:53 am 05:53 Clear 42 5.6 40 4.4 92 92 Calm 30.29 1026 10 16 0.00 0.00
6:53 am 06:53 Clear 40 4.4 38 3.3 93 93 Calm 30.31 1026 10 16 0.00 0.00
7:53 am 07:53 Sunny 40 4.4 38 3.3 93 93 Calm 30.32 1027 10 16 0.00 0.00
8:53 am 08:53 Sunny 49 9.4 44 6.7 83 83 NNE 5 7 30.34 1027 10 16 0.00 0.00
9:53 am 09:53 Sunny 53 11.7 45 7.2 74 74 NE 6 9 30.34 1027 10 16 0.00 0.00
10:53 am 10:53 Sunny 56 13.3 45 7.2 66 66 NE 7 11 30.34 1028 10 16 0.00 0.00
11:53 am 11:53 Sunny 60 15.6 46 7.8 60 60 VRB 6 9 30.34 1027 10 16 0.00 0.00
12:53 pm 12:53 Sunny 63 17.2 45 7.2 52 52 NE 6 9 30.32 1027 10 16 0.00 0.00
1:53 pm 13:53 Sunny 66 18.9 44 6.7 45 45 E 10 17 30.30 1026 10 16 0.00 0.00
2:53 pm 14:53 Sunny 68 20 43 6.1 40 40 NE 9 15 30.28 1026 10 16 0.00 0.00
3:53 pm 15:53 Sunny 69 20.6 41 5 36 36 ENE 9 15 30.26 1025 10 16 0.00 0.00
4:53 pm 16:53 Sunny 69 20.6 38 3.3 32 32 E 12 19 30.25 1025 10 16 0.00 0.00
5:53 pm 17:53 Sunny 68 20 38 3.3 33 33 E 9 15 30.25 1025 10 16 0.00 0.00
6:53 pm 18:53 Sunny 64 17.8 38 3.3 38 38 NNE 6 9 30.26 1025 10 16 0.00 0.00
7:53 pm 19:53 Clear 52 11.1 43 6.1 71 71 Calm 30.26 1025 10 16 0.00 0.00
8:53 pm 20:53 Clear 48 8.9 42 5.6 80 80 Calm 30.26 1025 10 16 0.00 0.00
9:53 pm 21:53 Clear 47 8.3 41 5 80 80 Calm 30.27 1025 10 16 0.00 0.00
10:53 pm 22:53 Clear 50 10 38 3.3 63 63 NE 5 7 30.26 1025 10 16 0.00 0.00
11:53 pm 23:53 Clear 44 6.7 40 4.4 85 85 Calm 30.26 1025 10 16 0.00 0.00

Powered by AerisWeather